DateTimeUTC,F1_A11,F1_S11,BsB_S11,BsG_S11,BsR_S11,BbsB_S11,BbsG_S11,BbsR_S11,BaB_A11,BaG_A11,BaR_A11,Tu_S11,T_S11,Uu_S11,U_S11,P_S11,T1_A11
2021-09-16T08:00:00Z,00000200,21000000,,,,,,,-000.28,-000.60,-000.38,18.0,25.3,,00.0,0651.2,31.1
2021-09-16T08:01:00Z,00000200,21000000,,,,,,,-000.28,-000.44,0000.32,18.0,25.3,,00.0,0651.2,31.1
2021-09-16T08:02:00Z,00000200,21000000,,,,,,,-000.15,0000.11,-000.45,18.1,25.4,,00.0,0651.2,31.1
2021-09-16T08:03:00Z,00000200,61000000,,,,,,,0011.46,0010.28,0007.78,18.1,25.4,,00.0,0651.2,31.1
2021-09-16T08:04:00Z,00000200,41000000,0000.29,0000.76,0000.09,0000.39,0000.56,-000.23,0019.91,0018.16,0014.14,18.3,25.2,,00.0,0652.1,31.0
2021-09-16T08:05:00Z,00000200,01000000,0001.31,0000.48,0000.04,0000.47,0000.09,0000.14,0007.80,0006.93,0005.60,18.3,25.1,,00.0,0652.2,31.0
2021-09-16T08:06:00Z,00000200,01000000,0000.08,0000.28,0000.04,0000.09,-000.12,-000.11,0006.92,0006.38,0004.83,18.3,25.1,,00.0,0652.2,31.0
2021-09-16T08:07:00Z,00000200,01000000,0000.26,0000.20,0000.13,0000.61,0000.23,-000.12,0004.51,0004.01,0003.20,18.2,25.1,,00.0,0652.2,31.0
2021-09-16T08:08:00Z,00000200,01000000,-000.27,0000.36,-000.05,0000.26,0000.10,0000.14,0000.44,0000.71,0000.47,18.2,25.0,,00.0,0652.1,31.0
2021-09-16T08:09:00Z,00000200,01000000,0000.51,0000.26,-000.35,0000.13,-000.13,-000.00,0000.90,0000.52,0000.52,18.1,25.0,,00.0,0652.1,31.0
2021-09-16T08:10:00Z,00000200,01000000,0000.50,0000.64,-000.05,-000.14,-000.13,0000.11,0000.19,0000.22,0000.16,18.1,25.0,,00.0,0652.1,31.0
2021-09-16T08:11:00Z,00000200,01000000,0000.36,0000.15,0000.08,-000.10,0000.16,-000.02,0000.43,0000.74,0000.12,18.2,25.0,,00.0,0652.1,31.0
2021-09-16T08:12:00Z,00000200,01000000,0000.83,0000.46,0000.21,0000.36,0000.30,-000.22,0000.10,0000.27,0000.72,18.3,25.0,,00.0,0652.2,31.0
2021-09-16T08:13:00Z,00000200,01000000,0000.66,0000.07,-000.01,0000.11,0000.14,0000.21,0000.42,-000.02,-000.13,18.3,25.1,,00.0,0652.2,31.1
2021-09-16T08:14:00Z,00000200,01000000,0000.04,0000.27,-000.11,-000.11,0000.13,0000.11,0000.28,0000.23,0000.13,18.4,25.1,,00.0,0652.2,31.0
2021-09-16T08:15:00Z,00000200,01000000,0000.26,0000.12,-000.09,-000.52,0000.00,0000.07,0000.00,-000.05,-000.23,18.4,25.1,,00.0,0652.2,31.0
2021-09-16T08:16:00Z,00000200,01000000,0000.37,0000.29,0000.12,-000.26,-000.11,-000.20,-000.22,-000.15,-000.04,18.4,25.1,,00.0,0652.2,31.0
2021-09-16T08:17:00Z,00000200,01000000,-000.17,0000.16,0000.10,0000.07,0000.02,-000.30,0000.43,0000.19,0000.51,18.3,25.1,,00.0,0652.2,31.0
2021-09-16T08:18:00Z,00000200,01000000,0000.06,0000.18,-000.30,0000.22,-000.05,0000.02,0000.01,0000.13,-000.30,18.3,25.1,,00.0,0652.2,31.0
2021-09-16T08:19:00Z,00000200,01000000,-000.17,0000.17,-000.20,-000.29,-000.24,0000.16,0000.25,0000.28,0000.48,18.2,25.0,,00.0,0652.2,31.0
2021-09-16T08:20:00Z,00000200,01000000,0000.63,0000.51,0000.27,0000.02,0000.02,-000.09,-000.23,-000.31,-000.16,18.2,25.0,,00.0,0652.2,31.0
2021-09-16T08:21:00Z,00000200,01000000,0000.92,0000.30,0000.00,0000.17,0000.16,-000.05,0000.26,0000.50,0000.24,18.1,25.0,,00.0,0652.2,31.0
2021-09-16T08:22:00Z,00000200,01000000,-000.10,0000.38,-000.18,0000.32,-000.04,0000.23,0000.01,-000.17,-000.28,18.1,24.9,,00.0,0652.2,31.0
2021-09-16T08:23:00Z,00000200,01000000,-000.28,0000.55,-000.14,0000.47,-000.01,-000.14,0000.16,0000.05,-000.08,18.0,24.9,,00.0,0652.2,31.0
2021-09-16T08:24:00Z,00000200,01000000,0000.21,0000.54,-000.11,-000.28,0000.29,0000.14,0000.19,-000.03,0000.37,18.0,24.9,,00.0,0652.2,31.0
2021-09-16T08:25:00Z,00000200,01000000,0000.15,0000.39,-000.27,-000.29,0000.11,-000.38,0000.13,0000.46,0000.20,18.0,24.9,,00.0,0652.2,31.0
2021-09-16T08:26:00Z,00000200,01000000,0000.72,0000.41,-000.29,-000.76,0000.26,-000.16,0000.49,0000.42,0000.24,18.0,24.9,,00.0,0652.2,31.0
2021-09-16T08:27:00Z,00000200,01000000,0000.79,0000.39,-000.19,0000.47,-000.14,-000.03,-000.06,0000.53,0000.45,18.1,24.9,,00.0,0652.2,31.0
2021-09-16T08:28:00Z,00000200,01000000,-000.25,0000.33,-000.09,-000.15,-000.08,-000.18,0000.41,0000.09,0000.07,18.2,25.0,,00.0,0652.2,31.0
2021-09-16T08:29:00Z,00000200,01000000,0000.48,0000.25,-000.04,-000.30,0000.41,-000.11,-000.02,-000.18,-000.24,18.3,25.0,,00.0,0652.3,31.1
2021-09-16T08:30:00Z,00000200,01000000,0000.20,0000.03,0000.00,0000.31,0000.07,0000.25,0000.24,0000.15,0000.23,18.4,25.1,,00.0,0652.2,31.1
2021-09-16T08:31:00Z,00000200,01000000,-000.17,0000.05,-000.04,-000.02,0000.14,-000.00,-000.09,0000.37,0000.17,18.5,25.1,,00.0,0652.3,31.1
2021-09-16T08:32:00Z,00000200,01000000,-000.62,0000.45,0000.00,0000.07,0000.10,0000.01,0000.26,-000.41,0000.09,18.4,25.1,,00.0,0652.3,31.1
2021-09-16T08:33:00Z,00000200,01000000,-000.18,-000.11,0000.10,0000.13,-000.01,0000.08,0000.11,-000.02,-000.32,18.4,25.1,,00.0,0652.2,31.1
2021-09-16T08:34:00Z,00000200,01000000,0000.23,0000.37,-000.08,-000.13,0000.21,-000.52,-000.03,0000.33,0000.15,18.3,25.1,,00.0,0652.2,31.0
2021-09-16T08:35:00Z,00000200,01000000,-000.00,0000.26,0000.17,-000.38,0000.13,-000.16,0000.40,-000.07,0000.21,18.3,25.0,,00.0,0652.2,31.0
2021-09-16T08:36:00Z,00000200,01000000,0000.26,-000.02,0000.26,0000.34,-000.13,0000.17,0002.48,0002.90,0002.12,18.2,25.0,,00.0,0652.2,31.0
2021-09-16T08:37:00Z,00000200,01000000,-000.36,0000.18,-000.19,0000.13,0000.12,-000.18,0002.67,0002.04,0001.52,18.2,25.0,,00.0,0652.2,31.0
2021-09-16T08:38:00Z,00000200,01000000,0000.30,0000.13,-000.33,-000.19,0000.19,-000.11,0000.34,0000.53,0000.47,18.1,24.9,,00.0,0652.2,31.0
2021-09-16T08:39:00Z,00000200,01000000,-000.16,0000.31,-000.38,0000.33,-000.03,-000.16,0000.49,0000.28,0000.18,18.1,24.9,,00.0,0652.2,31.0
2021-09-16T08:40:00Z,00000200,01000000,-000.11,0000.12,-000.16,0000.24,0000.21,-000.11,0000.40,-000.21,0000.22,18.1,24.9,,00.0,0652.3,31.0
2021-09-16T08:41:00Z,00000200,01000000,-000.22,0000.09,-000.06,-000.50,0000.10,0000.08,-000.21,0000.51,-000.19,18.2,24.9,,00.0,0652.3,31.0
2021-09-16T08:42:00Z,00000200,01000000,0000.43,0000.14,-000.27,0000.43,0000.08,0000.26,0000.06,-000.15,0000.01,18.2,24.9,,00.0,0652.3,31.0
2021-09-16T08:43:00Z,00000200,01000000,-000.47,0000.22,-000.71,-000.28,0000.07,-000.25,0000.05,0000.46,0000.39,18.4,25.0,,00.0,0652.3,31.1
2021-09-16T08:44:00Z,00000200,01000000,-000.34,0000.11,0000.07,-000.17,0000.33,-000.03,-000.14,-000.25,-000.16,18.5,25.0,,00.0,0652.4,31.1
2021-09-16T08:45:00Z,00000200,01000000,-000.40,-000.05,-000.38,-000.14,-000.19,-000.28,0000.69,0000.21,0000.22,18.5,25.1,,00.0,0652.4,31.1
2021-09-16T08:46:00Z,00000200,01000000,0000.13,0000.15,-000.05,0000.46,0000.01,0000.12,-000.97,-000.36,-000.39,18.6,25.1,,00.0,0652.4,31.1
2021-09-16T08:47:00Z,00000200,01000000,0000.22,0000.13,0000.04,-000.44,0000.29,-000.03,0000.10,-000.00,0000.10,18.6,25.1,,00.0,0652.4,31.1
2021-09-16T08:48:00Z,00000200,01000000,0000.20,0000.49,0000.17,-000.68,-000.14,0000.30,-000.06,-000.14,-000.11,18.5,25.1,,00.0,0652.4,31.0
2021-09-16T08:49:00Z,00000200,01000000,-000.05,0000.72,-000.03,-000.21,0000.15,-000.05,0000.26,0000.11,0000.17,18.4,25.1,,00.0,0652.4,31.0
2021-09-16T08:50:00Z,00000200,01000000,0000.00,0000.44,0000.14,-000.10,0000.45,-000.05,-000.37,-000.02,0000.11,18.4,25.1,,00.0,0652.4,31.0
2021-09-16T08:51:00Z,00000200,01000000,-000.01,0000.31,0000.03,-000.53,0000.33,0000.26,0000.42,-000.12,-000.20,18.3,25.0,,00.0,0652.4,31.0
2021-09-16T08:52:00Z,00000200,01000000,-000.42,0000.30,-000.15,-000.18,-000.17,-000.08,-000.11,0000.29,0000.08,18.3,25.0,,00.0,0652.4,31.0
2021-09-16T08:53:00Z,00000200,01000000,-000.14,0000.52,-000.02,-000.19,0000.33,-000.05,-000.22,-000.27,-000.68,18.2,25.0,,00.0,0652.4,31.0
2021-09-16T08:54:00Z,00000200,01000000,-000.19,0000.02,-000.12,-000.01,0000.11,-000.20,0000.16,0000.06,0000.55,18.2,24.9,,00.0,0652.5,31.0
2021-09-16T08:55:00Z,00000200,01000000,0000.61,0000.22,0000.05,-000.60,-000.01,0000.22,0000.46,0000.25,0000.02,18.2,24.9,,00.0,0652.5,31.0
2021-09-16T08:56:00Z,00000200,01000000,0000.02,0000.26,0000.14,0000.03,0000.07,-000.18,0000.35,0000.37,0000.46,18.2,24.9,,00.0,0652.5,31.0
2021-09-16T08:57:00Z,00000200,41000000,,,,,,,-000.10,-000.00,-000.16,18.3,25.0,,00.0,0652.5,31.0
2021-09-16T08:58:00Z,00000200,61000000,,,,,,,0000.22,0000.24,0000.15,18.0,25.2,,00.0,0651.6,31.0
2021-09-16T08:59:00Z,00000200,21000000,,,,,,,-000.52,-000.12,0000.05,18.1,25.3,,00.0,0651.6,31.1
